Theta_e
342 343 341 338 337 336 336 337 337 337 336 335 333 332 331 330 330 330 333 336 336 336 337 337 337 337 337 340 343 344 345 346 346 348 349 349 347 345 344 343 341 340
342 343 342 340 338 337 336 337 337 337 336 334 332 330 329 330 330 330 332 336 337 338 339 339 338 337 337 338 340 343 344 344 344 346 348 349 348 347 344 343 342 340
342 342 342 341 338 337 336 336 337 338 336 335 332 330 329 330 331 331 331 334 337 337 337 338 337 337 337 337 338 341 342 342 342 343 345 347 347 347 345 343 342 341
343 341 340 340 339 337 336 336 335 336 337 335 333 330 328 328 331 333 333 334 335 336 336 336 337 337 337 337 337 339 341 340 340 342 342 344 345 346 345 344 343 341
346 343 340 340 339 339 338 336 334 333 334 333 332 331 329 328 330 333 334 335 335 335 335 336 337 337 337 337 337 338 339 339 339 340 340 340 342 343 344 344 343 342
348 345 343 341 341 341 339 336 334 333 332 332 331 331 330 329 329 331 333 334 335 334 334 334 335 336 337 338 338 338 338 338 339 339 339 338 339 341 342 343 342 342
349 348 346 344 343 343 341 338 335 333 332 331 331 331 330 329 329 331 332 332 333 333 333 334 333 334 336 337 337 337 337 337 338 338 338 337 337 338 339 340 340 340
349 349 348 347 345 344 343 340 338 336 333 332 332 331 331 330 329 331 332 333 333 333 333 334 334 334 334 334 335 335 335 335 336 337 337 337 336 336 336 337 337 338
350 350 349 348 347 345 344 342 340 338 336 334 333 332 332 331 330 330 331 332 333 333 333 333 334 334 334 334 333 333 333 333 333 334 335 336 335 334 335 335 335 335
350 351 350 350 349 347 344 342 340 339 338 336 335 333 332 332 332 330 330 331 332 332 331 330 331 332 333 334 333 332 332 332 332 332 332 334 334 333 333 334 335 334
351 351 351 350 350 348 347 343 341 339 338 337 335 334 333 332 332 332 331 330 330 330 330 329 329 330 332 332 333 332 332 332 332 331 331 332 332 332 332 333 333 333
351 351 351 351 351 350 348 345 342 339 337 336 335 334 334 333 333 332 331 331 330 329 329 329 330 330 331 331 332 332 333 333 332 332 332 332 332 332 332 333 333 332
351 352 351 352 351 351 350 347 344 341 338 336 335 334 334 333 333 332 331 331 330 330 329 329 330 330 330 331 331 332 332 332 333 332 332 332 332 333 333 333 333 332
351 352 352 352 352 352 351 350 347 344 341 338 336 334 334 333 333 331 331 331 330 330 330 330 330 330 330 331 331 332 332 333 333 333 333 333 332 332 334 334 333 333
352 352 352 352 353 353 353 352 350 348 345 342 339 336 334 333 332 332 332 331 330 330 330 330 331 330 330 331 331 331 332 332 333 333 333 333 333 334 335 335 335 335
353 353 353 353 353 353 354 354 352 351 349 347 343 340 337 335 334 334 333 332 331 330 331 331 331 330 330 331 331 331 331 332 333 334 334 334 335 336 337 337 336 336
354 354 354 354 354 354 354 355 354 353 352 350 347 344 340 338 337 336 335 334 332 332 331 331 331 330 331 331 331 331 332 333 333 334 335 337 338 339 339 338 338 338
354 354 355 355 355 355 355 355 355 355 354 352 351 348 345 341 339 337 336 335 334 334 333 332 332 331 331 331 331 331 332 333 334 335 337 338 339 339 339 339 340 341
354 355 355 355 355 356 356 357 357 357 356 355 353 352 349 346 342 340 337 337 336 335 335 334 333 332 332 332 332 332 333 334 336 338 338 339 340 340 341 342 342 343
353 354 354 355 356 356 358 358 359 358 357 357 356 355 353 351 348 345 341 338 337 336 336 336 335 334 334 334 334 334 335 337 338 339 340 341 342 342 343 343 344 344
355 355 356 357 357 358 359 359 359 359 359 359 358 357 356 355 352 350 346 341 339 337 337 337 335 335 336 336 336 336 337 339 341 342 342 343 344 344 345 345 346 346
355 357 357 359 359 359 360 360 360 360 360 360 360 359 359 358 356 353 350 346 343 341 340 338 336 336 338 338 337 339 341 342 343 344 344 344 345 345 345 346 347 348
357 358 359 360 360 360 360 360 361 361 362 362 362 361 361 360 359 357 354 351 348 346 343 340 337 338 339 339 339 341 343 344 345 346 346 346 346 346 346 347 348 349
358 359 360 360 360 361 361 361 362 362 363 363 363 362 363 362 360 359 357 355 353 350 347 345 342 341 340 340 340 342 344 345 346 347 347 347 347 347 347 348 349 350
358 360 360 361 361 362 361 362 362 362 363 363 363 363 362 362 361 361 359 358 356 355 353 350 348 346 344 343 343 344 345 346 347 347 348 348 348 348 348 350 350 351
360 361 360 362 361 361 362 362 362 363 363 363 364 363 363 363 362 362 360 360 358 357 356 355 353 351 349 347 346 345 346 347 348 349 349 349 350 350 350 350 350 351
Wind_Speed
43 44 43 40 38 35 33 32 31 31 30 28 26 24 23 23 24 23 22 22 21 21 21 20 20 19 19 18 18 18 18 18 16 16 16 16 15 15 15 16 17 17
42 43 43 42 39 37 35 33 32 32 30 28 26 24 22 22 23 23 23 23 22 21 20 20 20 20 20 19 19 19 19 19 18 17 17 17 16 16 15 16 16 16
42 42 42 42 41 38 36 34 33 33 32 30 28 25 23 21 22 22 23 23 23 21 21 20 20 20 21 20 20 20 20 19 18 17 17 17 17 16 15 15 15 16
42 42 42 42 41 39 37 36 35 34 33 32 30 27 25 22 22 21 22 23 23 21 20 20 20 21 21 21 21 22 21 20 19 18 18 18 17 17 16 15 15 15
42 41 41 41 41 40 38 37 36 35 34 33 31 29 27 25 23 22 22 23 22 21 20 20 20 20 21 22 22 22 22 22 21 20 20 19 18 18 17 17 17 16
42 42 41 41 41 40 39 38 36 35 34 33 32 31 28 26 25 24 24 23 23 22 22 21 21 21 21 22 23 23 23 23 22 22 22 21 19 19 18 18 18 18
43 42 42 42 42 41 41 39 38 36 35 34 33 32 30 28 27 26 26 25 25 24 23 23 23 22 22 23 24 24 24 23 23 23 24 23 21 21 20 20 20 20
43 42 42 42 42 42 42 40 40 38 36 35 35 34 32 30 29 28 27 26 26 26 25 24 24 24 24 24 24 25 24 24 24 24 25 24 24 23 22 21 21 21
43 42 41 42 42 42 42 41 41 39 38 37 36 35 34 32 31 30 29 28 28 27 27 26 25 25 25 25 25 25 25 25 25 25 25 25 25 24 23 23 23 23
44 43 42 42 42 42 42 41 40 40 39 39 38 37 36 34 33 32 31 31 31 30 30 29 28 28 27 27 27 26 26 26 26 26 26 26 26 25 24 24 25 25
45 44 43 43 42 42 41 41 40 40 40 39 39 39 38 37 36 35 34 34 33 33 32 31 31 31 30 30 29 28 28 27 27 27 28 28 28 27 26 26 26 25
46 45 44 43 42 41 40 40 40 40 39 39 39 39 38 38 38 37 36 36 35 34 34 33 33 32 32 32 31 30 29 29 29 29 29 29 29 29 29 28 27 27
46 45 44 42 41 40 39 39 39 39 39 39 38 38 39 39 39 39 37 36 36 36 35 35 35 34 34 33 32 31 31 31 31 30 30 30 30 30 31 31 30 30
46 44 43 42 41 40 40 39 39 40 40 39 38 38 39 39 39 38 38 37 37 37 37 37 37 37 36 35 34 33 32 32 32 32 32 32 31 31 31 32 32 32
46 44 43 42 42 41 41 40 40 40 40 40 39 39 39 38 38 38 38 38 38 38 38 38 39 39 37 36 35 34 34 34 34 33 33 33 33 33 33 33 33 33
46 45 43 42 42 41 40 40 40 40 40 40 40 40 39 39 39 39 40 39 39 38 39 40 40 39 38 37 36 36 35 35 35 35 34 34 35 35 35 35 34 34
45 45 44 43 42 41 40 40 40 40 40 40 40 40 40 39 40 40 40 40 40 40 40 41 41 40 39 38 37 37 37 37 37 36 36 36 36 36 36 35 35 35
45 44 44 43 42 41 39 39 39 39 40 40 40 40 39 40 40 40 41 40 41 42 42 42 42 40 39 39 38 38 38 38 38 38 38 38 38 37 37 36 36 37
43 43 43 42 41 40 39 38 39 39 40 40 40 39 39 39 40 40 41 41 41 42 43 43 43 42 41 41 40 39 39 39 39 39 39 39 39 39 38 38 38 37
42 42 42 41 39 39 39 39 38 38 38 39 39 39 39 40 40 40 41 41 42 42 43 43 44 43 42 42 41 40 40 40 40 39 40 40 40 40 39 39 38 38
40 41 40 38 38 38 38 38 37 37 37 37 38 38 38 38 39 39 40 40 41 42 42 43 43 42 42 42 41 40 40 40 40 39 40 40 40 40 40 39 39 39
38 38 38 36 36 36 37 37 36 35 34 34 35 35 35 35 36 37 38 39 40 41 42 43 42 41 42 41 40 40 40 39 39 39 39 39 39 39 39 39 39 39
37 37 36 35 35 36 36 35 34 33 32 32 33 33 33 33 33 34 35 36 38 40 41 41 40 40 41 40 39 39 39 39 39 38 38 39 38 37 37 38 38 39
35 35 34 34 35 35 34 33 33 32 30 30 32 32 31 30 30 30 31 32 35 37 38 39 39 38 38 38 38 38 38 38 38 38 38 38 37 37 37 37 38 38
34 35 34 34 34 34 33 32 32 31 29 30 31 31 30 30 30 30 30 31 32 33 34 36 37 37 37 36 36 36 37 37 37 37 38 38 37 37 37 37 37 37
35 35 35 35 34 33 32 32 32 31 31 31 32 32 31 32 32 32 32 31 31 31 32 33 35 35 35 34 34 35 35 35 36 37 38 37 37 37 37 37 37 37
Wind_Direction
225 225 226 226 226 227 226 226 227 229 232 233 232 232 231 229 230 230 225 220 219 221 224 226 229 231 231 231 234 236 237 238 239 239 238 239 240 243 245 246 247 247
226 227 227 227 227 226 227 227 228 230 232 234 234 234 234 233 231 230 225 221 219 220 222 224 228 231 230 231 233 236 239 239 239 239 238 239 239 241 243 244 247 247
226 228 229 228 227 226 227 228 229 231 233 236 236 236 236 234 232 230 225 222 222 223 223 225 228 231 231 231 232 235 239 240 241 240 240 241 241 241 243 243 246 247
227 228 228 229 229 228 229 230 231 232 234 236 237 237 236 234 231 229 225 224 226 227 226 226 227 229 230 231 232 234 237 241 244 244 245 244 243 244 243 243 245 246
228 228 228 229 230 230 231 231 232 233 235 236 237 237 237 234 231 228 225 224 226 228 228 227 227 227 228 230 232 234 236 239 242 244 247 247 245 245 244 243 245 245
229 229 230 230 231 231 232 231 231 232 234 235 236 237 236 235 233 229 227 227 228 231 232 231 229 227 226 228 231 235 236 237 240 242 246 248 247 246 244 242 244 245
230 231 231 232 233 233 233 232 231 231 232 233 235 237 237 235 234 233 231 231 232 235 236 235 233 229 228 229 232 235 236 238 239 240 244 248 248 246 244 243 243 244
232 232 233 234 234 235 234 233 232 231 231 233 234 236 237 236 235 235 235 234 233 234 235 235 234 232 231 232 233 235 236 238 239 240 243 246 248 247 246 245 245 246
232 233 234 235 235 236 236 235 233 232 232 233 233 235 236 236 236 237 238 238 236 235 236 237 236 234 233 234 235 236 237 238 239 240 243 245 248 250 250 249 249 250
231 233 234 235 236 237 237 236 235 234 234 234 234 235 236 237 238 239 240 241 240 239 240 241 239 237 236 237 239 240 240 241 241 242 244 246 249 252 253 253 254 254
230 232 233 235 236 237 237 237 236 236 235 235 235 236 236 237 239 241 242 242 241 241 242 242 241 240 240 241 242 243 243 244 244 245 246 247 249 252 253 254 255 256
231 232 234 235 236 237 238 238 237 237 237 237 237 237 237 238 240 241 242 243 242 242 242 242 243 243 243 244 245 245 246 246 246 247 248 250 250 251 252 253 255 257
231 233 234 235 237 238 238 238 237 237 237 237 238 239 239 240 240 241 242 243 243 244 244 244 245 245 245 246 246 247 247 247 248 249 250 251 252 252 253 253 254 256
231 233 235 236 237 238 238 239 238 238 238 238 238 239 240 241 241 241 242 243 244 246 247 248 249 249 248 248 248 248 248 248 249 250 251 252 253 253 254 254 255 256
231 233 235 236 237 238 239 239 239 239 239 239 239 240 241 242 242 243 244 244 245 246 247 250 251 251 250 249 249 249 249 250 250 251 253 254 255 256 256 257 257 257
230 232 234 235 237 238 240 240 240 240 240 240 240 240 241 242 243 244 245 246 246 246 248 250 251 251 251 251 251 251 252 253 254 254 256 256 258 259 259 260 260 260
231 232 233 235 237 239 240 241 241 241 241 242 242 242 242 243 244 245 246 247 248 248 249 250 250 250 251 252 253 254 254 256 257 258 259 260 261 262 263 264 264 265
232 233 234 236 237 238 240 242 243 243 243 243 243 244 244 244 245 246 247 248 249 250 251 251 251 251 252 253 254 255 256 257 259 260 261 263 264 265 267 268 269 269
234 235 236 237 239 240 241 243 243 244 244 244 245 245 246 246 247 247 248 248 249 250 251 253 253 254 254 254 255 256 257 258 259 261 263 264 266 268 269 271 272 272
235 236 238 239 241 242 242 243 244 245 246 246 247 247 247 248 248 248 249 249 250 251 252 254 255 256 256 257 258 259 259 260 261 262 263 265 267 268 270 272 273 273
235 236 238 240 242 242 243 244 245 246 247 247 247 247 248 250 250 251 251 251 252 253 254 255 256 257 258 259 260 261 261 262 262 263 264 266 267 268 270 272 273 274
235 237 239 240 241 242 242 243 244 246 247 247 247 248 249 250 251 251 252 253 254 254 255 256 257 257 258 260 261 262 262 262 263 263 264 266 267 268 270 271 272 273
236 238 239 241 241 241 242 243 244 245 246 246 246 247 248 248 249 250 251 253 254 254 255 257 258 258 259 260 262 262 262 262 263 264 265 266 267 269 269 270 271 272
239 240 240 241 241 242 243 244 245 246 246 247 247 248 249 250 250 252 253 253 254 254 256 258 260 260 261 261 262 262 262 263 264 265 266 267 268 269 270 270 272 273
241 242 242 243 243 244 246 246 246 247 248 248 249 250 251 252 252 253 253 254 255 256 257 259 260 261 262 262 263 263 262 263 264 265 266 267 268 270 270 271 272 273
241 242 243 244 245 246 248 248 248 249 249 249 250 252 253 253 252 253 254 255 256 257 258 259 260 262 262 263 263 263 263 263 263 264 265 267 269 270 271 273 274 274